Weather History for Saginaw, MI

Change the Weather History Date:

Saturday, March 30, 2013

  Actual Average Record
Temperature  
Mean Temperature 40 °F 39 °F  
Max Temperature 54 °F 49 °F 72 °F (1998)
Min Temperature 28 °F 30 °F 21 °F (2003)
Degree Days  
Heating Degree Days 24    
Month to date heating degree days  
Since 1 July heating degree days  
Cooling Degree Days 0    
Month to date cooling degree days  
Year to date cooling degree days  
Moisture  
Dew Point 24 °F    
Average Humidity 52    
Maximum Humidity 81    
Minimum Humidity 26    
Precipitation  
Precipitation 0.00 in 0.07 in 0.26 in (1997)
Month to date precipitation 1.98  
Year to date precipitation 5.30  
Snow  
Snow 0.00 in - - ()
Month to date snowfall  
Since 1 July snowfall  
Snow Depth -    
Sea Level Pressure  
Sea Level Pressure 30.10 in    
Wind  
Wind Speed 5 mph (SW)    
Max Wind Speed 14 mph    
Max Gust Speed 21 mph    
Visibility 10 miles    
Events      
T = Trace of Precipitation, MM = Missing Value Source: NWS Daily Summary

Daily Weather History Graph

Daily Weather History Graph

Search for Another Location

Airport:

Trip Planner

Search our weather history database for the weather conditions in past years. The results will help you decide how hot, cold, wet, or windy it might be!

Date:

Astronomy

Mar. 30, 2013 Rise Set
Actual Time 7:21 AM EDT 8:00 PM EDT
Civil Twilight 6:52 AM EDT 8:29 PM EDT
Nautical Twilight 6:18 AM EDT 9:04 PM EDT
Astronomical Twilight 5:42 AM EDT 9:39 PM EDT
Moon No Moon Rise 9:08 AM EDT (3/30)
Length of Visible Light 13h 37m
Length of Day
12h 39m
Waning Gibbous, 86% of the Moon is Illuminated
Mar 30
Waning Gibbous
Apr 3
Last Quarter
Apr 10
New
Apr 18
First Quarter
Apr 25
Full

Hourly Weather History & Observations

Time (EDT) Temp. Windchill Dew Point Humidity Pressure Visibility Wind Dir Wind Speed Gust Speed Precip Events Conditions
12:53 AM 32.0 °F 25.6 °F 25.0 °F 75% 30.23 in 10.0 mi NNW 6.9 mph - N/A   Clear
1:53 AM 33.1 °F 28.7 °F 24.1 °F 70% 30.23 in 10.0 mi NNW 4.6 mph - N/A   Clear
2:53 AM 30.0 °F 26.5 °F 23.0 °F 75% 30.23 in 10.0 mi NNW 3.5 mph - N/A   Clear
3:53 AM 30.9 °F 27.5 °F 23.0 °F 72% 30.22 in 10.0 mi North 3.5 mph - N/A   Clear
4:53 AM 30.9 °F 26.2 °F 24.1 °F 76% 30.21 in 10.0 mi North 4.6 mph - N/A   Clear
5:53 AM 32.0 °F - 21.9 °F 66% 30.20 in 10.0 mi Calm Calm - N/A   Clear
6:53 AM 28.0 °F - 23.0 °F 81% 30.22 in 10.0 mi Calm Calm - N/A   Clear
8:53 AM 33.1 °F 28.7 °F 26.1 °F 75% 30.22 in 10.0 mi SW 4.6 mph - N/A   Clear
9:53 AM 36.0 °F 33.3 °F 26.1 °F 67% 30.21 in 10.0 mi SW 3.5 mph - N/A   Clear
10:53 AM 41.0 °F - 25.0 °F 53% 30.18 in 10.0 mi Calm Calm - N/A   Clear
11:53 AM 45.0 °F 41.8 °F 24.1 °F 44% 30.15 in 10.0 mi SSE 5.8 mph - N/A   Clear
12:53 PM 48.0 °F - 23.0 °F 37% 30.13 in 10.0 mi Variable 6.9 mph - N/A   Clear
1:53 PM 51.1 °F - 23.0 °F 33% 30.11 in 10.0 mi South 13.8 mph - N/A   Clear
2:53 PM 53.1 °F - 21.9 °F 30% 30.08 in 10.0 mi SW 12.7 mph 20.7 mph N/A   Clear
4:53 PM 53.1 °F - 19.0 °F 26% 30.02 in 10.0 mi SSW 10.4 mph - N/A   Partly Cloudy
5:53 PM 52.0 °F - 19.9 °F 28% 29.99 in 10.0 mi SSW 10.4 mph - N/A   Clear
6:53 PM 51.1 °F - 21.9 °F 32% 29.99 in 10.0 mi WSW 5.8 mph - N/A   Clear
7:53 PM 50.0 °F - 24.1 °F 36% 29.96 in 10.0 mi SSW 4.6 mph - N/A   Clear
8:53 PM 46.9 °F - 23.0 °F 39% 29.94 in 10.0 mi South 4.6 mph - N/A   Clear
9:53 PM 46.0 °F 41.9 °F 24.1 °F 42% 29.94 in 10.0 mi South 8.1 mph - N/A   Scattered Clouds
10:53 PM 46.9 °F - 26.1 °F 44% 29.92 in 10.0 mi South 6.9 mph - N/A   Overcast
11:53 PM 45.0 °F 40.6 °F 27.0 °F 49% 29.90 in 10.0 mi South 8.1 mph - N/A   Scattered Clouds